Regional Weather Roundup
Issued by NWS

Home | Current Version | Previous Version | Graphics & Text | Print | Product List | Glossary On
Versions: 1 2 3 4 5 6 7 8 9 10 11 12 13 14 15 16 17 18 19 20 21 22 23 24 25 26 27 28 29 30 31 32 33 34 35 36 37 38 39 40 41 42 43 44 45 46 47 48 49 50
000
ASUS43 KMKX 180700
RWRWI

WISCONSIN REGIONAL WEATHER ROUNDUP
NATIONAL WEATHER SERVICE MILWAUKEE/SULLIVAN WI
200 AM CDT WED OCT 18 2017

NOTE: "FAIR" INDICATES FEW OR NO CLOUDS BELOW 12,000 FEET WITH NO
SIGNIFICANT WEATHER AND/OR OBSTRUCTIONS TO VISIBILITY.

WIZ001-002-006>008-014>016-023>028-180800-
NORTHWEST WISCONSIN

CITY           SKY/WX    TMP DP  RH WIND       PRES   REMARKS
SUPERIOR ARPT  CLEAR     40  39  97 W3        29.81S
ASHLAND        CLEAR     57  44  62 SW12      29.84F
HAYWARD        CLEAR     55  43  63 S10       29.88F
SIREN          CLEAR     58  42  57 S9        29.86F
CUMBERLAND     CLEAR     46  41  81 S7        29.90F
RICE LAKE      CLEAR     49  43  80 SE5       29.92F
CHETEK         CLEAR     52  45  75 SE5       29.92S
LADYSMITH      CLEAR     52  45  75 S6        29.94S
EAU CLAIRE     NOT AVBL
MENOMONIE      CLEAR     54  44  67 SE5       29.93S
NEW RICHMOND   CLEAR     53  43  67 S8        29.89F
OSCEOLA        CLEAR     53  44  70 S5        29.91F
$$

WIZ003>005-009-010-017-018-180800-
NORTH CENTRAL WISCONSIN

CITY           SKY/WX    TMP DP  RH WIND       PRES   REMARKS
MANITOWISH WTR CLEAR     49  46  88 S7        29.92F
ARBOR VITAE    CLEAR     52  45  78 S6        29.94S
WOODRUFF       CLEAR     52  45  78 S6        29.94S
RHINELANDER    CLEAR     53  45  74 SW8       29.96F
EAGLE RIVER    CLEAR     49  42  76 S3        29.94F
LAND O LAKES   CLEAR     49  43  81 CALM      29.95S
PHILLIPS       CLEAR     50  44  79 S5        29.93S
TOMAHAWK       CLEAR     46  42  88 CALM      29.97S
MEDFORD        CLEAR     53  43  71 S9        29.96S
MERRILL        CLEAR     53  45  73 SW7       29.98S
$$

WIZ029-030-035-036-043>047-180800-
CENTRAL WISCONSIN

CITY           SKY/WX    TMP DP  RH WIND       PRES   REMARKS
WAUSAU         CLEAR     49  44  83 SE3       29.97S
MOSINEE        CLEAR     50  45  81 S12       30.00S
MARSHFIELD     CLEAR     48  41  76 S9        29.98S
STEVENS POINT  CLEAR     47  43  84 S7        30.01S
WAUPACA        CLEAR     52  45  76 S6        30.02S
WAUTOMA        CLEAR     41  40  96 CALM      30.04S
WISC RAPIDS    CLEAR     51  45  79 S6        30.01S
CAMP DOUGLAS   NOT AVBL
$$

WIZ011>013-019>022-031-037>040-048>050-180800-
NORTHEAST WISCONSIN

CITY           SKY/WX    TMP DP  RH WIND       PRES   REMARKS
ANTIGO         CLEAR     49  43  79 SW8       29.99S
SHAWANO        CLEAR     54  46  74 SW3       30.00S
OCONTO         CLEAR     54  45  72 SW5       30.00S
STURGEON BAY   CLEAR     57  45  64 SW10      30.01S
GREEN BAY      CLEAR     55  47  74 S8        30.02S
MANITOWOC      CLEAR     57  42  57 S8        30.05S
APPLETON       CLEAR     54  41  62 SW12      30.01F
CLINTONVILLE   CLEAR     52  43  71 SW6       30.01S
OSHKOSH        CLEAR     52  43  71 S10       30.03F
$$

WIZ032>034-041-042-053>061-180800-
SOUTHWEST WISCONSIN

CITY           SKY/WX    TMP DP  RH WIND       PRES   REMARKS
LA CROSSE      CLEAR     58  46  64 S8        29.99S
SPARTA         CLEAR     52  44  73 SW3       30.01F
VIROQUA        CLEAR     55  45  69 S9        30.02F
BOSCOBEL       CLEAR     44  42  93 CALM      30.05S FOG
PRAIRIE DU CHI CLEAR     57  42  56 CALM      30.03S
PLATTEVILLE    CLEAR     51  44  77 S8        30.07S
$$

WIZ056-057-062-063-064-067-068-180800-
SOUTH CENTRAL WISCONSIN

CITY           SKY/WX    TMP DP  RH WIND       PRES   REMARKS
REEDSBURG      CLEAR     53  43  68 S6        30.04S
BARABOO/DELLS  CLEAR     52  41  66 S9        30.04F
LONE ROCK      CLEAR     49  43  80 SE3       30.05F
MINERAL POINT  CLEAR     54  45  71 S8        30.07S
MADISON        NOT AVBL
MIDDLETON      CLEAR     54  42  65 SW8       30.07F
WATERTOWN      CLEAR     52  44  73 S9        30.08F
MONROE         CLEAR     50  41  71 S10       30.08S
JANESVILLE     CLEAR     52  41  66 S6        30.10S
$$

WIZ051-052-058>065-066-070>072-180800-
SOUTHEAST WISCONSIN

CITY           SKY/WX    TMP DP  RH WIND       PRES   REMARKS
MILWAUKEE      PTCLDY    55  42  61 SW10      30.11S
WAUKESHA       CLEAR     52  39  62 SW6       30.11S
MILWAUKEE/TIMM CLEAR     55  37  50 SW12      30.10S
RACINE         CLEAR     53  42  66 SW9       30.13S
BURLINGTON     CLEAR     51  43  73 S8        30.12S
KENOSHA        CLEAR     51  40  65 SW6       30.12F
FOND DU LAC    CLEAR     56  40  55 SW10      30.05F
SHEBOYGAN      CLEAR     52  43  71 SW9       30.06S
WEST BEND      CLEAR     55  39  54 SW10      30.08S
JUNEAU         CLEAR     51  42  70 S7        30.09S
$$

LSZ147-162-180800-
LAKE SUPERIOR

STATION/POSITION TIME  TEMP    WIND        PRES    WAVE
                       AIR SEA DIR/SP/G            HT/PER
                 (UTC) (F)     (DEG/KT/KT) (MB)    (FT/S)
W MID LAKE BUOY  0550   56 53              1009.8F   1/ 3
DEVILS ISLAND    0600   60     190/ 10/ 14 1009.8F
SAXON HARBOR     0640   61     190/  9/ 14 1010.2S
$$

LMZ867-665-643>646-180800-
LAKE MICHIGAN

STATION/POSITION TIME  TEMP    WIND        PRES    WAVE
                       AIR SEA DIR/SP/G            HT/PER
                 (UTC) (F)     (DEG/KT/KT) (MB)    (FT/S)
S GREEN BAY BUOY 0630   60 58  210/ 16/ 19 1015.5R
N MID LAKE BUOY  0550   61 59  190/ 12/ 14 1016.4F   3/ 6
NORTHPORT PIER   0640   54     160/  3/  6 1015.6R
KEWAUNEE LAKESHO 0630   57     190/  9/ 10 1015.9S
SHEBOYGAN LAKESH 0600   56     200/ 13/ 14 1017.7S
PORT WASHINGTON  0630   56     210/  3/  7 1019.6S
MILWAUKEE LAKESH 0640   58     230/ 10/ 12   N/A
S MID LAKE BUOY  0550   62 61  230/ 19/ 21 1020.2R   4/ 5
KENOSHA   LAKESH 0600   56     200/  7/ 10 1020.0
$$

TC  - TEMPERATURE IN CELSIUS
VSB - VISIBILITY IN STATUTE MILES
WCI - WIND CHILL INDEX
HX  - HEAT INDEX





USA.gov is the U.S. government's official web portal to all federal, state and local government web resources and services.